Location: Niles Junction
(37.5763°N, 121.9714°W)
Time: 04:31:56
(UTC+00:00)

Meteor PRIRODA - Pass Details

Date: 29 October 2020
Orbit: 491 x 509 km, 97.6° (Epoch: 23 November)

Event Time Altitude Azimuth Distance (km) Brightness Sun altitude
Rises 13:11:44 0° 15° (NNE) 2,585 7.4 -16.1°
Reaches altitude 10° 13:13:49 10° 19° (NNE) 1,701 6.5 -15.7°
Maximum altitude 13:17:27 63° 101° (E) 562 4.1 -15.0°
Drops below altitude 10° 13:21:04 10° 183° (S) 1,698 6.4 -14.3°
Sets 13:23:10 0° 186° (S) 2,580 7.3 -13.9°
